| time (UTC) | temp F | wind direction | speed knots | gust knots | rain 1hr in | rain 24hr in | rain mn in | humidity % | barometer mb |
| 20260507200028 | 84 | 109 | 1.7 | 6.1 | 0.00 | 0.00 | 0.00 | 71 | 1014.2 |
| 20260507194528 | 84 | 169 | 2.6 | 9.6 | 0.00 | 0.00 | 0.00 | 73 | 1014.2 |
| 20260507193031 | 84 | 62 | 4.3 | 10.4 | 0.00 | 0.00 | 0.00 | 72 | 1014.3 |
| 20260507191539 | 84 | 181 | 4.3 | 8.7 | 0.00 | 0.00 | 0.00 | 73 | 1014.4 |
| 20260507190041 | 84 | 118 | 2.6 | 10.4 | 0.00 | 0.00 | 0.00 | 74 | 1014.4 |
| 20260507184600 | 84 | 143 | 3.5 | 9.6 | 0.00 | 0.00 | 0.00 | 73 | 1014.5 |
| 20260507183054 | 86 | 62 | 5.2 | 9.6 | 0.00 | 0.00 | 0.00 | 72 | 1014.6 |
| 20260507181603 | 87 | 69 | 1.7 | 6.1 | 0.00 | 0.00 | 0.00 | 69 | 1014.7 |
| 20260507180057 | 87 | 66 | 3.5 | 8.7 | 0.00 | 0.00 | 0.00 | 68 | 1014.9 |
| 20260507174609 | 88 | 359 | 1.7 | 7.0 | 0.00 | 0.00 | 0.00 | 68 | 1015.0 |
| 20260507173059 | 89 | 29 | 3.5 | 7.8 | 0.00 | 0.00 | 0.00 | 66 | 1015.2 |
| 20260507171606 | 88 | 56 | 1.7 | 7.0 | 0.00 | 0.00 | 0.00 | 67 | 1015.4 |
| 20260507170000 | 89 | 66 | 1.7 | 8.7 | 0.00 | 0.00 | 0.00 | 67 | 1015.8 |
| 20260507164502 | 89 | 53 | 2.6 | 5.2 | 0.00 | 0.00 | 0.00 | 64 | 1016.0 |
| 20260507163003 | 91 | 20 | 2.6 | 8.7 | 0.00 | 0.00 | 0.00 | 64 | 1016.2 |
| 20260507161514 | 92 | 27 | 3.5 | 9.6 | 0.00 | 0.00 | 0.00 | 62 | 1016.3 |
| 20260507160015 | 92 | 63 | 2.6 | 7.8 | 0.00 | 0.00 | 0.00 | 60 | 1016.4 |
| 20260507154524 | 92 | 89 | 1.7 | 7.8 | 0.00 | 0.00 | 0.00 | 61 | 1016.5 |
| 20260507153024 | 93 | 164 | 1.7 | 7.8 | 0.00 | 0.00 | 0.00 | 59 | 1016.6 |
| 20260507151527 | 91 | 24 | 3.5 | 7.8 | 0.00 | 0.00 | 0.00 | 62 | 1016.6 |
| 20260507150040 | 91 | 83 | 2.6 | 9.6 | 0.00 | 0.00 | 0.00 | 59 | 1016.5 |
| 20260507144540 | 92 | 148 | 2.6 | 10.4 | 0.00 | 0.00 | 0.00 | 60 | 1016.6 |
| 20260507143045 | 91 | 141 | 1.7 | 5.2 | 0.00 | 0.00 | 0.00 | 62 | 1016.6 |
| 20260507141542 | 91 | 73 | 2.6 | 7.8 | 0.00 | 0.00 | 0.00 | 60 | 1016.7 |
| 20260507140048 | 91 | 66 | 3.5 | 12.2 | 0.00 | 0.00 | 0.00 | 63 | 1016.7 |
| 20260507134550 | 90 | 21 | 2.6 | 7.8 | 0.00 | 0.00 | 0.00 | 63 | 1016.7 |
| 20260507133048 | 88 | 177 | 2.6 | 7.8 | 0.00 | 0.00 | 0.00 | 64 | 1016.9 |
| 20260507131559 | 87 | 65 | 2.6 | 6.1 | 0.00 | 0.00 | 0.00 | 68 | 1016.9 |
| 20260507130106 | 86 | 58 | 2.6 | 6.1 | 0.00 | 0.00 | 0.00 | 69 | 1016.8 |
| 20260507124554 | 85 | 99 | 1.7 | 7.0 | 0.00 | 0.00 | 0.00 | 72 | 1016.8 |
| 20260507123054 | 83 | 54 | 4.3 | 9.6 | 0.00 | 0.00 | 0.00 | 74 | 1016.7 |
| 20260507121605 | 82 | 108 | 1.7 | 8.7 | 0.00 | 0.00 | 0.00 | 76 | 1016.7 |
| 20260507120011 | 80 | 57 | 0.9 | 7.8 | 0.00 | 0.00 | 0.00 | 77 | 1016.8 |
| 20260507114505 | 80 | 76 | 0.9 | 7.8 | 0.00 | 0.00 | 0.00 | 80 | 1016.7 |
| 20260507113006 | 79 | 70 | 1.7 | 5.2 | 0.00 | 0.00 | 0.00 | 82 | 1016.7 |
| 20260507111516 | 78 | 40 | 0.9 | 3.5 | 0.00 | 0.00 | 0.00 | 84 | 1016.6 |
| 20260507110018 | 76 | 143 | 0.9 | 3.5 | 0.00 | 0.00 | 0.00 | 85 | 1016.5 |
| 20260507104530 | 76 | 18 | 0.0 | 2.6 | 0.00 | 0.00 | 0.00 | 86 | 1016.6 |
| 20260507103032 | 75 | 37 | 0.9 | 7.0 | 0.00 | 0.00 | 0.00 | 85 | 1016.4 |
| 20260507101532 | 75 | 109 | 0.0 | 1.7 | 0.00 | 0.00 | 0.00 | 85 | 1016.3 |
| 20260507100042 | 75 | 45 | 0.0 | 4.3 | 0.00 | 0.00 | 0.00 | 84 | 1016.2 |
| 20260507094544 | 75 | 41 | 0.0 | 1.7 | 0.00 | 0.00 | 0.00 | 84 | 1016.0 |
| 20260507093053 | 75 | 58 | 0.9 | 2.6 | 0.00 | 0.00 | 0.00 | 83 | 1015.8 |
| 20260507091551 | 76 | 90 | 0.0 | 2.6 | 0.00 | 0.00 | 0.00 | 84 | 1015.8 |
| 20260507090047 | 76 | 91 | 0.0 | 3.5 | 0.00 | 0.00 | 0.00 | 84 | 1015.7 |
| 20260507084551 | 76 | 60 | 0.9 | 5.2 | 0.00 | 0.00 | 0.00 | 84 | 1015.7 |
| 20260507083050 | 76 | 57 | 0.9 | 2.6 | 0.00 | 0.00 | 0.00 | 84 | 1015.7 |
| 20260507081548 | 76 | 64 | 0.0 | 4.3 | 0.00 | 0.00 | 0.00 | 83 | 1015.7 |
| 20260507080048 | 76 | 170 | 0.0 | 2.6 | 0.00 | 0.00 | 0.00 | 83 | 1015.6 |
| 20260507074600 | 76 | 152 | 0.9 | 5.2 | 0.00 | 0.00 | 0.00 | 84 | 1015.6 |
| 20260507073047 | 77 | 73 | 0.9 | 4.3 | 0.00 | 0.00 | 0.00 | 84 | 1015.6 |
| 20260507071549 | 77 | 25 | 0.9 | 3.5 | 0.00 | 0.00 | 0.00 | 83 | 1015.8 |
| 20260507070051 | 77 | 59 | 0.9 | 4.3 | 0.00 | 0.00 | 0.00 | 83 | 1015.7 |
| 20260507064553 | 77 | 43 | 0.9 | 3.5 | 0.00 | 0.00 | 0.00 | 82 | 1015.8 |
| 20260507063054 | 77 | 60 | 1.7 | 5.2 | 0.00 | 0.00 | 0.00 | 83 | 1015.8 |
| 20260507061555 | 77 | 40 | 0.9 | 4.3 | 0.00 | 0.00 | 0.00 | 84 | 1016.0 |
| 20260507060052 | 77 | 56 | 1.7 | 5.2 | 0.00 | 0.00 | 0.00 | 84 | 1016.3 |
| 20260507054639 | 78 | 64 | 1.7 | 6.1 | 0.00 | 0.00 | 0.00 | 84 | 1016.5 |
| 20260507053105 | 78 | 74 | 0.9 | 4.3 | 0.00 | 0.00 | 0.00 | 84 | 1016.6 |
| 20260507051501 | 78 | 23 | 0.9 | 5.2 | 0.00 | 0.00 | 0.00 | 83 | 1016.8 |
| 20260507050011 | 78 | 136 | 0.9 | 7.0 | 0.00 | 0.00 | 0.00 | 83 | 1017.0 |
| 20260507044506 | 78 | 38 | 0.9 | 5.2 | 0.00 | 0.00 | 0.00 | 82 | 1017.2 |
| 20260507043017 | 78 | 12 | 0.9 | 7.0 | 0.00 | 0.00 | 0.00 | 82 | 1017.2 |
| 20260507041519 | 78 | 127 | 0.9 | 5.2 | 0.00 | 0.00 | 0.00 | 82 | 1017.4 |
| 20260507040022 | 78 | 40 | 0.0 | 8.7 | 0.00 | 0.00 | 0.00 | 81 | 1017.5 |
| 20260507034533 | 78 | 56 | 1.7 | 5.2 | 0.00 | 0.00 | 0.00 | 82 | 1017.5 |
| 20260507033034 | 78 | 43 | 1.7 | 3.5 | 0.00 | 0.00 | 0.00 | 80 | 1017.7 |
| 20260507031601 | 78 | 84 | 1.7 | 7.0 | 0.00 | 0.00 | 0.00 | 79 | 1017.9 |
| 20260507030053 | 78 | 107 | 1.7 | 7.8 | 0.00 | 0.00 | 0.00 | 79 | 1018.0 |
| 20260507024548 | 78 | 67 | 0.9 | 5.2 | 0.00 | 0.00 | 0.00 | 79 | 1017.9 |
| 20260507023101 | 78 | 359 | 1.7 | 8.7 | 0.00 | 0.00 | 0.00 | 78 | 1017.9 |
| 20260507021549 | 78 | 50 | 1.7 | 5.2 | 0.00 | 0.00 | 0.00 | 79 | 1017.9 |
| 20260507020055 | 78 | 33 | 1.7 | 7.8 | 0.00 | 0.00 | 0.00 | 79 | 1017.8 |
| 20260507014602 | 78 | 109 | 0.9 | 3.5 | 0.00 | 0.00 | 0.00 | 80 | 1017.7 |
| 20260507013055 | 79 | 129 | 0.0 | 2.6 | 0.00 | 0.00 | 0.00 | 80 | 1017.6 |
| 20260507011557 | 79 | 35 | 0.0 | 7.0 | 0.00 | 0.00 | 0.00 | 80 | 1017.5 |
| 20260507010105 | 79 | 158 | 1.7 | 8.7 | 0.00 | 0.00 | 0.00 | 80 | 1017.3 |
| 20260507004558 | 79 | 162 | 3.5 | 7.0 | 0.00 | 0.00 | 0.00 | 80 | 1017.1 |
| 20260507003100 | 79 | 77 | 0.0 | 3.5 | 0.00 | 0.00 | 0.00 | 80 | 1017.0 |
| 20260507001606 | 79 | 16 | 0.0 | 5.2 | 0.00 | 0.00 | 0.00 | 81 | 1016.9 |
| 20260507000101 | 79 | 70 | 3.5 | 8.7 | 0.00 | 0.00 | 0.00 | 81 | 1016.9 |
| 20260506234604 | 79 | 54 | 1.7 | 6.1 | 0.00 | 0.00 | 0.00 | 81 | 1016.7 |
| 20260506233002 | 79 | 164 | 0.9 | 7.0 | 0.00 | 0.00 | 0.00 | 80 | 1016.4 |
| 20260506231503 | 79 | 60 | 0.9 | 5.2 | 0.00 | 0.00 | 0.00 | 80 | 1016.2 |
| 20260506230014 | 79 | 64 | 2.6 | 5.2 | 0.00 | 0.00 | 0.00 | 79 | 1016.2 |
| 20260506224513 | 80 | 59 | 1.7 | 8.7 | 0.00 | 0.00 | 0.00 | 79 | 1016.1 |
| 20260506223024 | 80 | 50 | 1.7 | 7.8 | 0.00 | 0.00 | 0.00 | 78 | 1015.8 |
| 20260506221526 | 80 | 53 | 1.7 | 8.7 | 0.00 | 0.00 | 0.00 | 76 | 1015.6 |
| 20260506220028 | 81 | 71 | 3.5 | 9.6 | 0.00 | 0.00 | 0.00 | 75 | 1015.5 |
| 20260506214539 | 81 | 163 | 2.6 | 9.6 | 0.00 | 0.01 | 0.00 | 74 | 1015.4 |
| 20260506213044 | 82 | 52 | 4.3 | 9.6 | 0.00 | 0.01 | 0.00 | 73 | 1015.3 |
| 20260506211552 | 83 | 162 | 1.7 | 11.3 | 0.00 | 0.01 | 0.00 | 73 | 1015.1 |
| 20260506210057 | 84 | 58 | 2.6 | 10.4 | 0.00 | 0.01 | 0.00 | 71 | 1015.0 |
| 20260506204555 | 84 | 68 | 4.3 | 8.7 | 0.00 | 0.01 | 0.00 | 72 | 1015.0 |
| 20260506203055 | 84 | 359 | 3.5 | 8.7 | 0.00 | 0.01 | 0.00 | 73 | 1015.0 |
| 20260506201557 | 84 | 137 | 1.7 | 8.7 | 0.00 | 0.01 | 0.00 | 75 | 1015.1 |